Location: Unspecified
(0.0000°N, 0.0000°E)
Time: 20:37:33
(UTC+02:00)

Iridium 39 - Visible Passes

Search period start: 22 July 2017 00:00
Search period end: 01 August 2017 00:00
Orbit: 725 x 751 km, 86.4° (Epoch: 21 July)

Date Brightness Start Highest point End Pass type
(mag) Time Alt. Az. Time Alt. Az. Time Alt. Az.
22 Jul 6.5 05:58:50 50° ESE 05:59:27 54° E 06:04:24 10° NNE visible
23 Jul 8.4 05:14:35 17° E 05:14:35 17° E 05:17:37 10° NE visible
23 Jul 7.0 06:54:17 25° W 06:54:17 25° W 06:58:07 10° NW visible
24 Jul 6.2 06:10:00 57° NNW 06:10:00 57° NNW 06:14:00 10° N visible
25 Jul 8.0 05:25:40 24° NE 05:25:40 24° NE 05:28:18 10° NNE visible
25 Jul 7.9 07:05:22 11° WNW 07:05:22 11° WNW 07:05:57 10° WNW visible
26 Jul 7.4 06:21:00 24° NNW 06:21:00 24° NNW 06:23:12 10° NNW visible
27 Jul 8.0 05:36:36 21° NNE 05:36:36 21° NNE 05:38:19 10° NNE visible
28 Jul 8.2 06:31:51 10° NW 06:31:51 10° NW 06:31:53 10° NW visible
29 Jul 8.4 05:47:24 13° N 05:47:24 13° N 05:47:52 10° N visible
